GOES 12 (26871 NORAD) Tracking and Keplerian Element Data

This shows tracking and keplerian element data for the satellite.

Feedback or suggestion? Click here.




ElementValue
Catalog26871
NameGOES 12
Epoch Orbit8582
Epoch Day34.56310127
Epoch Year2025
RAAN41.3401
Inclination11.2716
Eccentricity0.0007874
Argument of Perigee287.4645
Mean Anonmoly117.2138
Mean Motion0.99136308
Decay Rate-1.68E-06
L11 26871U 01031A 25034.56310127 -.00000168 00000+0 00000+0 0 9992
L22 26871 11.2716 41.3401 0007874 287.4645 117.2138 0.99136308 85824



Live tracking and technical data element details for GOES 12 (NORAD 26871). GOES 12 can be tracked NOW for your location showing map with azimuth and elevation plus other details from your city location.







IsCatalogInMostPopularTable: catalog: 26871, numindb: 300
Update: records affected: 1



GetName: 26871 GOES 12

Hit Count: updated at: Thu, 15 May 2025 09:22:18 GMT